Dutch Harbor, AK

2:35 AM AKST on February 27, 2017 (GMT -0900)
Unalaska

Weather History for PADU - October, 2012

Change the Weather History Date:

Wednesday, October 3, 2012

  Actual Average Record
Temperature  
Mean Temperature 48 °F -  
Max Temperature 52 °F 50 °F 56 °F (1989)
Min Temperature 46 °F 36 °F -2 °F (1984)
Degree Days  
Heating Degree Days 16    
Moisture  
Dew Point 45 °F    
Average Humidity 84    
Maximum Humidity 93    
Minimum Humidity 66    
Precipitation  
Precipitation 0.31 in - - ()
Sea Level Pressure  
Sea Level Pressure 29.21 in    
Wind  
Wind Speed 20 mph (SE)    
Max Wind Speed 29 mph    
Max Gust Speed 55 mph    
Visibility 6 miles    
Events Rain    
Averages and records for this station are not official NWS values.
T = Trace of Precipitation, MM = Missing Value Source: NWS Daily Summary

Daily Weather History Graph

Daily Weather History Graph

Search for Another Location

Airport or City:

Trip Planner

Search our weather history database for the weather conditions in past years. The results will help you decide how hot, cold, wet, or windy it might be!

Date:

Astronomy

Oct. 03, 2012 Rise Set
Actual Time 9:13 AM AKDT 8:35 PM AKDT
Civil Twilight 8:37 AM AKDT 9:10 PM AKDT
Nautical Twilight 7:56 AM AKDT 9:51 PM AKDT
Astronomical Twilight 7:14 AM AKDT 10:33 PM AKDT
Moon 9:57 PM AKDT (10/3) 1:26 PM AKDT (10/3)
Length of Visible Light 12h 33m
Length of Day
11h 22m
Waning Gibbous, 88% of the Moon is Illuminated
Oct 3
Waning Gibbous
Oct 7
Last Quarter
Oct 15
New
Oct 21
First Quarter
Oct 29
Full

Hourly Weather History & Observations

Time (AKDT) Temp. Windchill Dew Point Humidity Pressure Visibility Wind Dir Wind Speed Gust Speed Precip Events Conditions
12:12 AM 48.2 °F - 42.8 °F 82% 29.53 in 10.0 mi ESE 19.6 mph 31.1 mph 0.00 in Rain Light Rain
12:30 AM 48.2 °F - 44.6 °F 87% 29.52 in 10.0 mi SE 23.0 mph 28.8 mph 0.00 in Rain Light Rain
12:49 AM 48.2 °F - 44.6 °F 87% 29.51 in 10.0 mi SE 25.3 mph 36.8 mph 0.00 in   Overcast
12:56 AM 48.0 °F - 45.0 °F 89% 29.52 in 10.0 mi ESE 23.0 mph 36.8 mph 0.00 in   Overcast
1:56 AM 48.0 °F - 45.0 °F 89% 29.48 in 6.0 mi SE 24.2 mph 33.4 mph 0.00 in Rain Light Rain
2:13 AM 48.2 °F - 44.6 °F 87% 29.46 in 4.0 mi SE 27.6 mph 35.7 mph 0.01 in Rain Light Rain
2:35 AM 48.2 °F - 44.6 °F 87% 29.44 in 5.0 mi ESE 10.4 mph 31.1 mph 0.02 in Rain Light Rain
2:47 AM 48.2 °F - 44.6 °F 87% 29.43 in 4.0 mi SSE 8.1 mph 18.4 mph 0.02 in Rain Light Rain
2:56 AM 48.0 °F - 45.0 °F 89% 29.44 in 5.0 mi ESE 8.1 mph 18.4 mph 0.03 in Rain Light Rain
3:40 AM 48.2 °F - 44.6 °F 87% 29.39 in 5.0 mi ESE 24.2 mph 29.9 mph 0.04 in Rain Light Rain
3:56 AM 48.9 °F - 45.0 °F 86% 29.39 in 4.0 mi SE 15.0 mph 25.3 mph 0.05 in Rain Light Rain
4:10 AM 48.2 °F - 46.4 °F 93% 29.36 in 5.0 mi ESE 10.4 mph 27.6 mph 0.01 in Rain Light Rain
4:56 AM 50.0 °F - 46.9 °F 89% 29.33 in 4.0 mi ESE 13.8 mph 32.2 mph 0.02 in Rain Light Rain
5:10 AM 50.0 °F - 46.4 °F 87% 29.29 in 5.0 mi ESE 21.9 mph 33.4 mph 0.00 in Rain Light Rain
5:34 AM 50.0 °F - 46.4 °F 87% 29.27 in 5.0 mi SE 21.9 mph 31.1 mph 0.00 in Rain Light Rain
5:56 AM 51.1 °F - 46.9 °F 86% 29.27 in 5.0 mi SE 26.5 mph 38.0 mph 0.00 in Rain Light Rain
6:18 AM 51.8 °F - 48.2 °F 88% 29.23 in 7.0 mi SE 21.9 mph 28.8 mph 0.01 in Rain Light Rain
6:56 AM 51.1 °F - 48.0 °F 89% 29.22 in 6.0 mi SE 19.6 mph 28.8 mph 0.02 in Rain Light Rain
7:56 AM 51.1 °F - 48.0 °F 89% 29.19 in 6.0 mi SE 24.2 mph 40.3 mph 0.02 in Rain Light Rain
8:53 AM 50.0 °F - 46.4 °F 87% 29.13 in 3.0 mi SE 28.8 mph 40.3 mph 0.05 in Rain Light Rain
8:56 AM 51.1 °F - 46.9 °F 86% 29.15 in 3.0 mi SE 26.5 mph 40.3 mph 0.06 in Rain Light Rain
9:42 AM 50.0 °F - 46.4 °F 87% 29.10 in 2.0 mi SE 26.5 mph 36.8 mph 0.05 in Rain Light Rain
9:56 AM 51.1 °F - 46.9 °F 86% 29.12 in 2.0 mi SE 26.5 mph 35.7 mph 0.06 in Rain Light Rain
9:58 AM 50.0 °F - 46.4 °F 87% 29.10 in 2.0 mi SE 23.0 mph 34.5 mph 0.00 in Rain Light Rain
10:56 AM 51.1 °F - 46.0 °F 83% 29.09 in 2.0 mi SE 16.1 mph 27.6 mph 0.02 in Rain Light Rain
11:09 AM 51.8 °F - 46.4 °F 82% 29.06 in 6.0 mi SE 17.3 mph 23.0 mph 0.00 in Rain Light Rain
11:56 AM 51.1 °F - 46.9 °F 86% 29.08 in 6.0 mi SSE 10.4 mph - 0.00 in Rain Light Rain
12:56 PM 50.0 °F - 45.0 °F 83% 29.05 in 8.0 mi SSE 18.4 mph 26.5 mph 0.00 in   Mostly Cloudy
1:56 PM 48.9 °F - 46.0 °F 90% 29.02 in 3.0 mi SE 17.3 mph 25.3 mph 0.00 in Rain Light Rain
2:37 PM 50.0 °F - 46.4 °F 87% 28.99 in 6.0 mi SSE 23.0 mph 34.5 mph 0.01 in Rain Light Rain
2:56 PM 50.0 °F - 46.0 °F 86% 28.99 in 6.0 mi SSE 19.6 mph 26.5 mph 0.01 in Rain Light Rain
3:08 PM 50.0 °F - 46.4 °F 87% 28.97 in 5.0 mi SSE 16.1 mph 27.6 mph 0.00 in Rain Light Rain
3:38 PM 50.0 °F - 46.4 °F 87% 28.95 in 2.0 mi SE 17.3 mph 24.2 mph 0.00 in Rain Light Rain
3:56 PM 48.9 °F - 45.0 °F 86% 28.96 in 2.0 mi SE 15.0 mph 35.7 mph 0.00 in Rain Light Rain
4:56 PM 48.9 °F - 45.0 °F 86% 28.93 in 10.0 mi SSE 12.7 mph 23.0 mph 0.00 in   Mostly Cloudy
5:56 PM 50.0 °F - 46.0 °F 86% 28.92 in 10.0 mi SSE 10.4 mph - 0.00 in Rain Light Rain
6:56 PM 50.0 °F - 44.1 °F 80% 28.97 in 10.0 mi SW 18.4 mph - 0.00 in   Overcast
7:56 PM 50.0 °F - 44.1 °F 80% 29.02 in 10.0 mi SSW 15.0 mph - 0.01 in Rain Light Rain
8:56 PM 46.9 °F - 37.9 °F 71% 29.11 in 10.0 mi SW 18.4 mph 28.8 mph 0.00 in Rain Light Rain
9:56 PM 46.0 °F 37.6 °F 37.0 °F 71% 29.18 in 10.0 mi WSW 24.2 mph 29.9 mph 0.00 in Rain Light Rain
10:56 PM 46.9 °F - 37.0 °F 68% 29.24 in 10.0 mi SW 28.8 mph 55.2 mph 0.01 in Rain Light Rain
11:40 PM 46.4 °F 37.5 °F 35.6 °F 66% 29.25 in 10.0 mi SW 27.6 mph 40.3 mph 0.00 in   Overcast
11:56 PM 46.9 °F - 36.0 °F 66% 29.28 in 10.0 mi SW 23.0 mph 40.3 mph 0.00 in   Overcast